Voltar ao catálogo

OPS 4682 DEB

AtivoPO
NORAD 39609·DEBRIS·🇺🇸 United States

Lançado Apr 3, 1965 de Vandenberg Space Force Base

Loading…

Próximas Passagens (próximas 24 horas)

TLE

AtualizadoSource: Space-Track

Época: Sep 12, 2026, 19:49 UTC

1 39609U 65027FS  26255.82599793  .00000703  00000-0  23675-2 0  9994
2 39609  90.2598  16.5438 0028940 179.0079 333.8895 12.98204785607676

Acompanhe OPS 4682 DEB em tempo real com AllMySat

Download on the App Store